Riverside March, CA

8:55 PM PST on November 19, 2017 (GMT -0800)
March Air Reserve Base

Weather History for KRIV - October, 2012

Change the Weather History Date:

Thursday, October 18, 2012

  Actual Average Record
Temperature  
Mean Temperature 69 °F -  
Max Temperature 79 °F 78 °F 100 °F (2003)
Min Temperature 59 °F 50 °F 42 °F (1998)
Cooling Degree Days 4    
Growing Degree Days 19 (Base 50)    
Moisture  
Dew Point 56 °F    
Average Humidity 66    
Maximum Humidity 96    
Minimum Humidity 34    
Precipitation  
Precipitation 0.00 in - - ()
Sea Level Pressure  
Sea Level Pressure 30.02 in    
Wind  
Wind Speed 4 mph (WNW)    
Max Wind Speed 13 mph    
Max Gust Speed 17 mph    
Visibility 10 miles    
Events      
Averages and records for this station are not official NWS values.
T = Trace of Precipitation, MM = Missing Value Source: NWS Daily Summary

Daily Weather History Graph

Daily Weather History Graph

Search for Another Location

Airport or City:

Trip Planner

Search our weather history database for the weather conditions in past years. The results will help you decide how hot, cold, wet, or windy it might be!

Date:

Astronomy

Oct. 18, 2012 Rise Set
Actual Time 6:56 AM PDT 6:10 PM PDT
Civil Twilight 6:31 AM PDT 6:35 PM PDT
Nautical Twilight 6:02 AM PDT 7:05 PM PDT
Astronomical Twilight 5:33 AM PDT 7:33 PM PDT
Moon 10:34 AM PDT (10/18) 8:59 PM PDT (10/18)
Length of Visible Light 12h 04m
Length of Day
11h 13m
Waxing Crescent, 15% of the Moon is Illuminated
Oct 18
Waxing Crescent
Oct 21
First Quarter
Oct 29
Full
Nov 6
Last Quarter
Nov 13
New

Hourly Weather History & Observations

Time (PDT) Temp. Dew Point Humidity Pressure Visibility Wind Dir Wind Speed Gust Speed Precip Events Conditions
12:55 AM 68.7 °F 39.0 °F 34% 29.91 in 10.0 mi Calm Calm - N/A   Clear
1:55 AM 67.8 °F 40.3 °F 37% 29.92 in 10.0 mi Calm Calm - N/A   Clear
2:55 AM 61.9 °F 42.1 °F 48% 29.92 in 10.0 mi Calm Calm - N/A   Clear
3:55 AM 60.4 °F 40.5 °F 48% 29.93 in 10.0 mi ESE 4.6 mph - N/A   Clear
4:55 AM 59.9 °F 42.1 °F 52% 29.96 in 10.0 mi SSE 3.5 mph - N/A   Clear
5:55 AM 63.1 °F 55.4 °F 76% 30.00 in 10.0 mi SE 4.6 mph - N/A   Clear
6:55 AM 60.8 °F 59.5 °F 96% 30.02 in 10.0 mi SW 3.5 mph - N/A   Clear
7:55 AM 64.0 °F 51.8 °F 64% 30.05 in 10.0 mi Calm Calm - N/A   Clear
8:18 AM 66.2 °F 59.0 °F 78% 30.06 in 10.0 mi Calm Calm - N/A   Mostly Cloudy
8:42 AM 69.8 °F 64.4 °F 83% 30.07 in 10.0 mi NW 9.2 mph - N/A   Mostly Cloudy
8:49 AM 69.8 °F 64.4 °F 83% 30.07 in 10.0 mi NW 9.2 mph - N/A   Mostly Cloudy
8:55 AM 69.4 °F 63.7 °F 82% 30.07 in 10.0 mi WNW 9.2 mph - N/A   Mostly Cloudy
9:55 AM 71.2 °F 61.7 °F 72% 30.08 in 10.0 mi NW 8.1 mph - N/A   Scattered Clouds
10:55 AM 74.1 °F 61.5 °F 65% 30.08 in 10.0 mi NW 10.4 mph - N/A   Partly Cloudy
11:55 AM 76.5 °F 60.3 °F 57% 30.08 in 10.0 mi WNW 9.2 mph 17.3 mph N/A   Partly Cloudy
12:55 PM 77.5 °F 61.3 °F 57% 30.06 in 10.0 mi WNW 8.1 mph - N/A   Partly Cloudy
1:55 PM 78.6 °F 60.1 °F 53% 30.04 in 10.0 mi WNW 10.4 mph - N/A   Clear
2:55 PM 79.0 °F 58.8 °F 50% 30.03 in 10.0 mi NW 11.5 mph - N/A   Clear
3:55 PM 77.9 °F 59.2 °F 52% 30.02 in 10.0 mi WNW 11.5 mph - N/A   Clear
4:55 PM 75.7 °F 58.3 °F 55% 30.02 in 10.0 mi NW 12.7 mph - N/A   Clear
5:55 PM 72.1 °F 58.3 °F 62% 30.01 in 10.0 mi NW 11.5 mph - N/A   Clear
6:55 PM 68.9 °F 58.1 °F 68% 30.03 in 10.0 mi NW 8.1 mph - N/A   Clear
7:55 PM 65.7 °F 57.6 °F 75% 30.04 in 10.0 mi NW 5.8 mph - N/A   Clear
8:55 PM 64.9 °F 57.4 °F 76% 30.04 in 10.0 mi Calm Calm - N/A   Clear
9:55 PM 62.4 °F 57.9 °F 85% 30.05 in 10.0 mi NW 4.6 mph - N/A   Clear
10:55 PM 61.3 °F 57.9 °F 89% 30.05 in 10.0 mi WNW 4.6 mph - N/A   Clear
11:55 PM 59.0 °F 56.7 °F 92% 30.04 in 10.0 mi WNW 3.5 mph - N/A   Clear